Weather History for Andalusia, AL

Change the Weather History Date:

Sunday, September 22, 2013

  Actual Average (KCEW) Record (KCEW)
Temperature  
Mean Temperature 76 °F -  
Max Temperature 82 °F 87 °F 97 °F (1990)
Min Temperature 69 °F 61 °F 48 °F (1983)
Cooling Degree Days 10    
Growing Degree Days 26 (Base 50)    
Moisture  
Dew Point 67 °F    
Average Humidity 80    
Maximum Humidity 94    
Minimum Humidity 58    
Precipitation  
Precipitation 0.00 in - - ()
Sea Level Pressure  
Sea Level Pressure 29.79 in    
Wind  
Wind Speed 5 mph (ENE)    
Max Wind Speed 10 mph    
Max Gust Speed -    
Averages and records for this station are not official NWS values.
T = Trace of Precipitation, MM = Missing Value Source: NWS Daily Summary

Daily Weather History Graph

Daily Weather History Graph

Search for Another Location

Airport:

Trip Planner

Search our weather history database for the weather conditions in past years. The results will help you decide how hot, cold, wet, or windy it might be!

Date:

Astronomy

Sep. 22, 2013 Rise Set
Actual Time 6:34 AM CDT 6:41 PM CDT
Civil Twilight 6:09 AM CDT 7:06 PM CDT
Nautical Twilight 5:41 AM CDT 7:34 PM CDT
Astronomical Twilight 5:13 AM CDT 8:02 PM CDT
Moon 8:47 PM CDT (9/22) 9:38 AM CDT (9/22)
Length of Visible Light 12h 56m
Length of Day
12h 07m
Waning Gibbous, 88% of the Moon is Illuminated
Sep 22
Waning Gibbous
Sep 26
Last Quarter
Oct 4
New
Oct 11
First Quarter
Oct 18
Full

Hourly Weather History & Observations

Time (CDT) Temp. Heat Index Dew Point Humidity Pressure Visibility Wind Dir Wind Speed Gust Speed Precip Events Conditions
12:49 AM 71.6 °F - 69.8 °F 94% 29.78 in - NNE 10.4 mph - 0.00 in Rain Light Rain
12:56 AM 72.0 °F - 69.1 °F 91% 29.77 in - NNE 8.1 mph - 0.00 in Rain Light Rain
1:23 AM 71.6 °F - 68.0 °F 88% 29.78 in - NNE 5.8 mph - 0.00 in   Overcast
1:56 AM 71.1 °F - 68.0 °F 90% 29.76 in - NE 5.8 mph - 0.00 in   Overcast
2:23 AM 71.6 °F - 66.2 °F 83% 29.77 in - NNE 5.8 mph - N/A   Overcast
2:56 AM 70.0 °F - 66.9 °F 90% 29.76 in - NNE 4.6 mph - N/A   Overcast
3:45 AM 69.8 °F - 66.2 °F 88% 29.77 in - NE 4.6 mph - N/A   Overcast
3:56 AM 70.0 °F - 66.0 °F 87% 29.76 in - Calm Calm - N/A   Overcast
4:13 AM 69.8 °F - 66.2 °F 88% 29.77 in - Calm Calm - N/A   Overcast
4:29 AM 69.8 °F - 66.2 °F 88% 29.77 in - ENE 3.5 mph - N/A   Overcast
4:44 AM 69.8 °F - 66.2 °F 88% 29.77 in - ENE 3.5 mph - N/A   Overcast
4:56 AM 70.0 °F - 66.9 °F 90% 29.75 in - ENE 3.5 mph - N/A   Overcast
5:56 AM 70.0 °F - 66.9 °F 90% 29.77 in - NE 4.6 mph - N/A   Overcast
6:39 AM 69.8 °F - 66.2 °F 88% 29.79 in - NE 3.5 mph - N/A   Overcast
6:54 AM 69.8 °F - 66.2 °F 88% 29.79 in - ENE 3.5 mph - N/A   Overcast
6:56 AM 70.0 °F - 66.9 °F 90% 29.78 in - ENE 3.5 mph - N/A   Overcast
7:03 AM 69.8 °F - 66.2 °F 88% 29.79 in - Calm Calm - N/A   Overcast
7:56 AM 71.1 °F - 66.9 °F 87% 29.79 in - Variable 3.5 mph - N/A   Overcast
8:06 AM 71.6 °F - 66.2 °F 83% 29.80 in - NE 4.6 mph - N/A   Overcast
8:16 AM 71.6 °F - 66.2 °F 83% 29.80 in - East 4.6 mph - N/A   Overcast
8:56 AM 72.0 °F - 66.9 °F 84% 29.80 in - ENE 4.6 mph - N/A   Overcast
9:56 AM 73.9 °F - 66.9 °F 79% 29.81 in - East 5.8 mph - N/A   Overcast
10:56 AM 75.9 °F - 66.9 °F 74% 29.82 in - ESE 5.8 mph - N/A   Overcast
11:05 AM 75.2 °F - 66.2 °F 73% 29.83 in - SSE 4.6 mph - N/A   Overcast
11:56 AM 77.0 °F - 66.9 °F 71% 29.82 in - Calm Calm - N/A   Mostly Cloudy
12:56 PM 79.0 °F - 66.9 °F 66% 29.81 in - East 3.5 mph - N/A   Overcast
1:20 PM 80.6 °F 82.7 °F 66.2 °F 61% 29.81 in - Calm Calm - N/A   Scattered Clouds
1:30 PM 82.4 °F 84.6 °F 66.2 °F 58% 29.80 in - ENE 3.5 mph - N/A   Mostly Cloudy
1:49 PM 82.4 °F 84.6 °F 66.2 °F 58% 29.80 in - Variable 4.6 mph - N/A   Scattered Clouds
1:56 PM 82.0 °F 84.1 °F 66.0 °F 58% 29.79 in - East 5.8 mph - N/A   Partly Cloudy
2:56 PM 81.0 °F 83.3 °F 66.9 °F 62% 29.78 in - NE 3.5 mph - N/A   Overcast
3:35 PM 80.6 °F 83.2 °F 68.0 °F 65% 29.78 in - NE 3.5 mph - N/A   Overcast
3:56 PM 80.1 °F 82.7 °F 68.0 °F 67% 29.77 in - Calm Calm - N/A   Overcast
4:56 PM 80.1 °F 82.7 °F 68.0 °F 67% 29.77 in - NE 3.5 mph - N/A   Overcast
5:56 PM 78.1 °F - 68.0 °F 71% 29.78 in - NE 3.5 mph - N/A   Overcast
6:56 PM 77.0 °F - 69.1 °F 76% 29.79 in - Calm Calm - N/A   Mostly Cloudy
7:56 PM 75.9 °F - 70.0 °F 82% 29.80 in - Calm Calm - N/A   Overcast
8:56 PM 73.9 °F - 70.0 °F 87% 29.82 in - Calm Calm - N/A   Partly Cloudy
9:56 PM 73.9 °F - 70.0 °F 87% 29.82 in - East 3.5 mph - N/A   Partly Cloudy
10:56 PM 73.0 °F - 70.0 °F 90% 29.82 in - Calm Calm - N/A   Mostly Cloudy
11:56 PM 73.0 °F - 70.0 °F 90% 29.81 in - ESE 3.5 mph - N/A   Mostly Cloudy